This demonstration page uses our WeatherBlox Daily Observations layout. Learn more.

Left ArrowRight Arrow

38.80484, -77.04692

Hourly Observations for November 4, 2021

Temp ( °F °C ) Dew Point ( °F °C ) Humidity (%) Winds ( mph kmh ) Pressure ( in mb ) Visibility ( mi km ) Precip ( " mm )
12:52 am 00:52 Cloudy 45 7.2 32 undefined 61 61 NNW 5 7 30.36 1028 10 16 N/A
1:52 am 01:52 Cloudy 46 7.8 31 -0.6 56 56 N 3 6 30.36 1028 10 16 N/A
2:52 am 02:52 Mostly Cloudy 42 5.6 34 1.1 73 73 NNW 5 7 30.36 1028 10 16 N/A
3:52 am 03:52 Cloudy 40 4.4 33 0.6 77 77 N 7 11 30.36 1028 10 16 N/A
4:52 am 04:52 Cloudy 40 4.4 32 undefined 73 73 NNW 6 9 30.35 1028 10 16 N/A
5:52 am 05:52 Cloudy 40 4.4 32 undefined 73 73 N 5 7 30.36 1028 10 16 N/A
6:52 am 06:52 Cloudy 39 3.9 31 -0.6 73 73 N 7 11 30.36 1028 10 16 N/A
7:52 am 07:52 Mostly Cloudy 39 3.9 32 undefined 76 76 N 7 11 30.36 1028 10 16 N/A
8:52 am 08:52 Mostly Cloudy 42 5.6 34 1.1 73 73 N 5 7 30.37 1028 10 16 N/A
9:52 am 09:52 Mostly Cloudy 45 7.2 31 -0.6 58 58 NE 7 11 30.37 1028 10 16 N/A
10:52 am 10:52 Mostly Cloudy 48 8.9 34 1.1 58 58 NE 6 9 30.36 1028 10 16 N/A
11:52 am 11:52 Cloudy 50 10 33 0.6 52 52 VRB 3 6 30.36 1028 10 16 N/A
12:52 pm 12:52 Sunny 52 11.1 27 -2.8 38 38 N N/A 30.33 1027 10 16 N/A
1:52 pm 13:52 Cloudy 52 11.1 26 -3.3 37 37 NE 5 7 30.31 1026 10 16 N/A
2:52 pm 14:52 Cloudy 54 12.2 28 -2.2 37 37 VRB 3 6 30.29 1026 10 16 N/A
3:52 pm 15:52 Cloudy 53 11.7 27 -2.8 37 37 ENE 3 6 30.28 1026 10 16 N/A
4:52 pm 16:52 Mostly Cloudy 51 10.6 28 -2.2 41 41 NE 5 7 30.27 1025 10 16 N/A
5:52 pm 17:52 Mostly Cloudy 50 10 28 -2.2 43 43 E 5 7 30.27 1025 10 16 N/A
6:52 pm 18:52 Mostly Cloudy 49 9.4 31 -0.6 50 50 ESE 3 6 30.27 1025 10 16 N/A
7:52 pm 19:52 Mostly Cloudy 48 8.9 31 -0.6 52 52 ENE 3 6 30.28 1025 10 16 N/A
8:52 pm 20:52 Mostly Cloudy 47 8.3 32 undefined 56 56 ENE 5 7 30.28 1025 10 16 N/A
9:52 pm 21:52 Partly Cloudy 46 7.8 34 1.1 63 63 N N/A 30.29 1026 10 16 N/A
10:52 pm 22:52 Mostly Cloudy 42 5.6 33 0.6 71 71 N 6 9 30.29 1026 10 16 N/A
11:52 pm 23:52 Mostly Cloudy 41 5 32 undefined 70 70 NNW 5 7 30.29 1026 10 16 N/A

Powered by AerisWeather